Погода в Карманове

Россия / Республика Башкортостан     56°13′54″N   54°32′22″E
темп.,
°C
ветер,
м/с
пор.,
м/с
влажн.,
%
обл.,
%
осадки,
мм/ч
давл.,
гПа
погр.,
м
18 мая, ср
ср1823:00+9юз4893100 3.3 1001465
02:00+7ююз39966 0.2 1001300
05:00+5ю37965 0.2 1001149
08:00+9ююз36835 0.0 1001344
11:00+12ююз46640 0.4 10001218
14:00+14юз455583 1.4 10001670
17:00+14зюз3455100 2.7 9991446
20:00+10зсз358022 1.4 1000246
19 мая, чт
чт1923:00+7зсз37965 1.4 1001181
02:00+6зсз4696100 0.0 1002463
05:00+5зсз4796100 0.4 1004837
08:00+6зсз4785100 0.1 1006741
11:00+8з5764100 0.2 10071391
14:00+9зюз476393 0.0 10071138
17:00+7юз3690100 1.1 1006993
20:00+7зюз388764 3.1 1006702
20 мая, пт
пт2023:00+4з5893100 3.3 1007761
02:00+5зюз2788100 0.0 1008267
05:00+3зюз389440 0.1 1008264
08:00+5зюз358755 0.0 1009454
11:00+7з3368100 0.1 10091169
14:00+9сз226079 0.1 10081229
17:00+11с224975 0.1 10061635
20:00+9ссв24665 0.1 1005150
21 мая, сб
сб2123:00+4ссз238559 0.2 100549
02:00+3ссз239113 0.0 100351
05:00+2ссз4992100 0.1 1003310
08:00+3ссз4796100 0.4 1003465
11:00+4сз4583100 1.3 1003801
14:00+5сз4574100 0.1 1003857
17:00+7зсз345891 0.2 10021264
20:00+6зсз357737 0.6 1002561
22 мая, вс
вс2223:00+1зсз269485 0.8 1002116
02:00+1з259792 0.0 1001144
05:00+2з3695100 0.0 1000305
08:00+3зсз458792 0.0 1000569
11:00+4з4575100 0.1 1000949
14:00+6зюз5662100 0.1 9991322
17:00+7з586588 0.3 9991273
20:00+5з5978100 0.4 9991063